TimeCST,TemperatureF,Dew PointF,Humidity,Sea Level PressureIn,VisibilityMPH,Wind Direction,Wind SpeedMPH,Gust SpeedMPH,PrecipitationIn,Events,Conditions,WindDirDegrees,DateUTC
12:53 AM,3.9,-5.1,66,30.40,10.0,WNW,12.7,-,N/A,,Mostly Cloudy,290,2013-02-01 06:53:00
1:25 AM,3.2,-5.8,66,30.36,10.0,WNW,12.7,24.2,N/A,,Partly Cloudy,300,2013-02-01 07:25:00
1:53 AM,3.0,-5.1,69,30.43,10.0,West,10.4,-,N/A,,Mostly Cloudy,280,2013-02-01 07:53:00
2:15 AM,1.4,-5.8,72,30.38,10.0,WNW,10.4,18.4,N/A,,Scattered Clouds,290,2013-02-01 08:15:00
2:53 AM,1.9,-6.0,69,30.43,10.0,WNW,9.2,-,N/A,,Clear,290,2013-02-01 08:53:00
3:53 AM,1.0,-7.1,69,30.43,10.0,WNW,9.2,-,N/A,,Clear,300,2013-02-01 09:53:00
4:53 AM,1.0,-7.1,69,30.43,10.0,WNW,8.1,-,N/A,,Clear,300,2013-02-01 10:53:00
5:53 AM,-0.4,-7.6,72,30.39,10.0,WNW,6.9,-,N/A,,Clear,290,2013-02-01 11:53:00
6:53 AM,-0.9,-8.0,72,30.46,10.0,WNW,5.8,-,N/A,,Clear,300,2013-02-01 12:53:00
7:53 AM,-0.9,-8.0,72,30.47,10.0,WNW,6.9,-,N/A,,Clear,290,2013-02-01 13:53:00
8:53 AM,-0.0,-8.0,69,30.48,10.0,WNW,8.1,-,N/A,,Clear,290,2013-02-01 14:53:00
9:53 AM,1.9,-7.1,66,30.48,10.0,Variable,5.8,-,N/A,,Clear,0,2013-02-01 15:53:00
10:53 AM,3.9,-6.0,64,30.47,10.0,Calm,Calm,-,N/A,,Clear,0,2013-02-01 16:53:00
11:53 AM,6.1,-4.0,63,30.45,10.0,West,8.1,-,N/A,,Clear,260,2013-02-01 17:53:00
12:53 PM,10.0,-0.9,61,30.41,10.0,SW,11.5,-,N/A,,Partly Cloudy,230,2013-02-01 18:53:00
1:53 PM,12.0,1.0,61,30.39,10.0,SW,12.7,-,N/A,,Overcast,220,2013-02-01 19:53:00
2:53 PM,12.9,-0.0,56,30.35,10.0,SW,9.2,-,N/A,,Overcast,220,2013-02-01 20:53:00
3:53 PM,14.0,3.0,62,30.34,8.0,SW,8.1,-,N/A,,Overcast,230,2013-02-01 21:53:00
4:53 PM,16.0,3.9,59,30.32,6.0,South,6.9,-,N/A,,Haze,190,2013-02-01 22:53:00
5:53 PM,17.1,6.1,62,30.29,10.0,South,11.5,-,N/A,,Overcast,190,2013-02-01 23:53:00
6:53 PM,18.0,8.1,65,30.26,10.0,South,12.7,-,N/A,,Overcast,190,2013-02-02 00:53:00
7:53 PM,19.9,9.0,62,30.23,10.0,South,15.0,-,N/A,,Overcast,180,2013-02-02 01:53:00
8:53 PM,21.0,12.0,68,30.20,10.0,SSW,15.0,-,N/A,,Overcast,200,2013-02-02 02:53:00
9:53 PM,21.0,16.0,81,30.20,10.0,SSW,17.3,-,N/A,,Overcast,210,2013-02-02 03:53:00
10:53 PM,21.9,17.1,82,30.18,10.0,SSW,11.5,-,N/A,,Overcast,210,2013-02-02 04:53:00
11:53 PM,24.1,17.1,75,30.16,10.0,SSW,13.8,-,N/A,,Overcast,210,2013-02-02 05:53:00